Time,TemperatureF,DewpointF,PressureIn,WindDirection,WindDirectionDegrees,WindSpeedMPH,WindSpeedGustMPH,Humidity,HourlyPrecipIn,Conditions,Clouds,dailyrainin,SoftwareType,DateUTC
2013-05-10 00:01:00,56.7,54.7,29.92,ESE,122,1.6,3.5,93,0.00,OVC,,0.00,WeatherDisplay:10.37,2013-05-10 04:01:00,
2013-05-10 00:06:00,56.7,54.7,29.92,SSE,156,0.0,1.2,93,0.00,OVC,,0.00,WeatherDisplay:10.37,2013-05-10 04:06:00,
2013-05-10 00:11:00,56.6,54.6,29.92,SSE,156,0.3,2.3,93,0.00,OVC,,0.00,WeatherDisplay:10.37,2013-05-10 04:11:00,
2013-05-10 00:16:00,56.6,54.6,29.92,SSE,156,1.0,2.3,93,0.00,OVC,,0.00,WeatherDisplay:10.37,2013-05-10 04:16:00,
2013-05-10 00:21:00,56.6,54.6,29.92,SSE,156,0.0,0.0,93,0.00,OVC,,0.00,WeatherDisplay:10.37,2013-05-10 04:21:00,
2013-05-10 00:26:00,56.6,54.6,29.92,SSE,155,0.0,0.0,93,0.00,OVC,,0.00,WeatherDisplay:10.37,2013-05-10 04:26:00,
2013-05-10 00:31:00,56.6,54.6,29.92,SSE,156,0.0,0.0,93,0.00,OVC,,0.00,WeatherDisplay:10.37,2013-05-10 04:31:00,
2013-05-10 00:36:00,56.6,54.6,29.92,SSE,156,0.0,0.0,93,0.00,OVC,,0.00,WeatherDisplay:10.37,2013-05-10 04:36:00,
2013-05-10 00:41:00,56.4,54.4,29.92,SSE,156,0.0,1.2,93,0.00,OVC,,0.00,WeatherDisplay:10.37,2013-05-10 04:41:00,
2013-05-10 00:46:00,56.4,54.4,29.91,SE,134,1.8,3.5,93,0.00,OVC,,0.00,WeatherDisplay:10.37,2013-05-10 04:46:00,
2013-05-10 00:51:00,56.3,54.6,29.91,SE,134,1.7,2.3,94,0.00,OVC,,0.00,WeatherDisplay:10.37,2013-05-10 04:51:00,
2013-05-10 00:56:00,56.2,54.2,29.91,SE,135,0.4,2.0,93,0.00,OVC,,0.00,WeatherDisplay:10.37,2013-05-10 04:56:00,
2013-05-10 01:01:00,56.0,54.0,29.91,SE,135,1.4,2.3,93,0.00,OVC,,0.00,WeatherDisplay:10.37,2013-05-10 05:01:00,
2013-05-10 01:06:00,55.9,54.2,29.91,SE,135,0.0,0.0,94,0.00,OVC,,0.00,WeatherDisplay:10.37,2013-05-10 05:06:00,
2013-05-10 01:11:00,55.9,54.2,29.91,SE,135,1.2,2.3,94,0.00,OVC,,0.00,WeatherDisplay:10.37,2013-05-10 05:11:00,
2013-05-10 01:16:00,55.9,54.2,29.91,SE,135,0.0,0.0,94,0.00,OVC,,0.00,WeatherDisplay:10.37,2013-05-10 05:16:00,
2013-05-10 01:21:00,55.9,54.2,29.91,SE,135,0.0,0.0,94,0.00,OVC,,0.00,WeatherDisplay:10.37,2013-05-10 05:21:00,
2013-05-10 01:26:00,55.9,54.2,29.91,SE,135,0.0,0.0,94,0.00,OVC,,0.00,WeatherDisplay:10.37,2013-05-10 05:26:00,
2013-05-10 01:31:00,55.9,54.2,29.92,SE,135,0.0,0.0,94,0.00,OVC,,0.00,WeatherDisplay:10.37,2013-05-10 05:31:00,
2013-05-10 01:36:00,55.9,54.2,29.91,SE,134,0.0,0.0,94,0.00,OVC,,0.00,WeatherDisplay:10.37,2013-05-10 05:36:00,
2013-05-10 01:41:00,56.0,54.3,29.91,SE,134,0.0,0.0,94,0.00,OVC,,0.00,WeatherDisplay:10.37,2013-05-10 05:41:00,
2013-05-10 01:46:00,56.0,54.3,29.91,SE,135,0.0,0.0,94,0.00,OVC,,0.00,WeatherDisplay:10.37,2013-05-10 05:46:00,
2013-05-10 01:51:00,56.0,54.3,29.91,SE,135,0.0,0.0,94,0.00,OVC,,0.00,WeatherDisplay:10.37,2013-05-10 05:51:00,
2013-05-10 01:56:00,56.0,54.6,29.92,SE,134,0.0,0.0,95,0.00,OVC,,0.00,WeatherDisplay:10.37,2013-05-10 05:56:00,
2013-05-10 02:01:00,56.0,54.6,29.91,SE,134,0.0,0.0,95,0.00,OVC,,0.00,WeatherDisplay:10.37,2013-05-10 06:01:00,
2013-05-10 02:06:00,56.0,54.6,29.91,SE,134,0.0,0.0,95,0.00,OVC,,0.00,WeatherDisplay:10.37,2013-05-10 06:06:00,
2013-05-10 02:11:00,56.0,54.6,29.91,SE,135,0.0,0.0,95,0.00,OVC,,0.00,WeatherDisplay:10.37,2013-05-10 06:11:00,
2013-05-10 02:16:00,56.2,54.8,29.91,SE,134,0.0,0.0,95,0.00,OVC,,0.00,WeatherDisplay:10.37,2013-05-10 06:16:00,
2013-05-10 02:21:00,56.2,54.8,29.91,SE,135,0.0,0.0,95,0.00,OVC,,0.00,WeatherDisplay:10.37,2013-05-10 06:21:00,
2013-05-10 02:26:00,56.2,54.8,29.91,SE,135,0.0,0.0,95,0.00,OVC,,0.00,WeatherDisplay:10.37,2013-05-10 06:26:00,
2013-05-10 02:31:00,56.2,54.8,29.91,SE,134,0.0,0.0,95,0.00,OVC,,0.00,WeatherDisplay:10.37,2013-05-10 06:31:00,
2013-05-10 02:36:00,56.2,54.8,29.91,SE,134,0.0,0.0,95,0.00,OVC,,0.00,WeatherDisplay:10.37,2013-05-10 06:36:00,
2013-05-10 02:41:00,56.2,54.8,29.91,SE,135,0.0,0.0,95,0.00,OVC,,0.00,WeatherDisplay:10.37,2013-05-10 06:41:00,
2013-05-10 02:46:00,56.3,54.9,29.92,SE,134,0.0,0.0,95,0.00,OVC,,0.00,WeatherDisplay:10.37,2013-05-10 06:46:00,
2013-05-10 02:51:00,56.3,54.9,29.92,SE,134,0.0,0.0,95,0.00,OVC,,0.00,WeatherDisplay:10.37,2013-05-10 06:51:00,
2013-05-10 02:56:00,56.3,54.9,29.92,SE,134,0.0,0.0,95,0.00,OVC,,0.00,WeatherDisplay:10.37,2013-05-10 06:56:00,
2013-05-10 03:01:00,56.3,54.9,29.92,SE,135,0.0,0.0,95,0.00,OVC,,0.00,WeatherDisplay:10.37,2013-05-10 07:01:00,
2013-05-10 03:06:00,56.3,54.9,29.92,SE,135,0.0,0.0,95,0.00,OVC,,0.00,WeatherDisplay:10.37,2013-05-10 07:06:00,
2013-05-10 03:11:00,56.3,54.9,29.92,SE,134,0.0,1.2,95,0.00,OVC,,0.00,WeatherDisplay:10.37,2013-05-10 07:11:00,
2013-05-10 03:16:00,56.3,54.9,29.91,SE,134,0.0,0.0,95,0.00,OVC,,0.00,WeatherDisplay:10.37,2013-05-10 07:16:00,
2013-05-10 03:21:00,56.3,54.9,29.91,SE,134,0.0,0.0,95,0.00,OVC,,0.00,WeatherDisplay:10.37,2013-05-10 07:21:00,
2013-05-10 03:26:00,56.3,54.9,29.91,SE,134,0.0,0.0,95,0.00,OVC,,0.00,WeatherDisplay:10.37,2013-05-10 07:26:00,
2013-05-10 03:31:00,56.3,54.9,29.91,SE,134,0.0,0.0,95,0.00,OVC,,0.00,WeatherDisplay:10.37,2013-05-10 07:31:00,
2013-05-10 03:36:00,56.3,54.9,29.91,SE,135,0.0,0.0,95,0.00,OVC,,0.00,WeatherDisplay:10.37,2013-05-10 07:36:00,
2013-05-10 03:41:00,56.3,54.9,29.91,SE,134,0.4,1.2,95,0.00,OVC,,0.00,WeatherDisplay:10.37,2013-05-10 07:41:00,
2013-05-10 03:46:00,56.3,54.9,29.91,SE,134,0.0,0.0,95,0.00,OVC,,0.00,WeatherDisplay:10.37,2013-05-10 07:46:00,
2013-05-10 03:51:00,56.3,54.9,29.91,SE,134,0.0,0.0,95,0.00,OVC,,0.00,WeatherDisplay:10.37,2013-05-10 07:51:00,
2013-05-10 03:56:00,56.3,54.9,29.91,SE,135,0.0,0.0,95,0.00,OVC,,0.00,WeatherDisplay:10.37,2013-05-10 07:56:00,
2013-05-10 04:01:00,56.3,54.9,29.91,SE,135,0.0,0.0,95,0.00,OVC,,0.00,WeatherDisplay:10.37,2013-05-10 08:01:00,
2013-05-10 04:06:00,56.3,54.9,29.91,SE,135,0.0,0.0,95,0.00,OVC,,0.00,WeatherDisplay:10.37,2013-05-10 08:06:00,
2013-05-10 04:11:00,56.3,54.9,29.91,SE,135,0.0,0.0,95,0.00,OVC,,0.00,WeatherDisplay:10.37,2013-05-10 08:11:00,
2013-05-10 04:16:00,56.3,54.9,29.91,SE,135,0.0,0.0,95,0.00,OVC,,0.00,WeatherDisplay:10.37,2013-05-10 08:16:00,
2013-05-10 04:21:00,56.4,55.0,29.91,SE,135,0.0,0.0,95,0.00,OVC,,0.00,WeatherDisplay:10.37,2013-05-10 08:21:00,
2013-05-10 04:26:00,56.4,55.0,29.91,SE,134,0.0,0.0,95,0.00,OVC,,0.00,WeatherDisplay:10.37,2013-05-10 08:26:00,
2013-05-10 04:31:00,56.4,55.0,29.91,SE,134,0.0,0.0,95,0.00,OVC,,0.00,WeatherDisplay:10.37,2013-05-10 08:31:00,
2013-05-10 04:36:00,56.4,55.0,29.91,SE,134,0.0,0.0,95,0.00,OVC,,0.00,WeatherDisplay:10.37,2013-05-10 08:36:00,
2013-05-10 04:41:00,56.4,55.0,29.91,SE,134,0.0,0.0,95,0.00,OVC,,0.00,WeatherDisplay:10.37,2013-05-10 08:41:00,
2013-05-10 04:46:00,56.4,55.0,29.92,SE,135,0.0,0.0,95,0.00,OVC,,0.00,WeatherDisplay:10.37,2013-05-10 08:46:00,
2013-05-10 04:51:00,56.4,55.0,29.92,SE,134,0.0,0.0,95,0.00,OVC,,0.00,WeatherDisplay:10.37,2013-05-10 08:51:00,
2013-05-10 04:56:00,56.4,55.0,29.92,SE,135,0.0,0.0,95,0.00,OVC,,0.00,WeatherDisplay:10.37,2013-05-10 08:56:00,
2013-05-10 05:01:00,56.4,55.0,29.91,SE,134,0.0,0.0,95,0.00,OVC,,0.00,WeatherDisplay:10.37,2013-05-10 09:01:00,
2013-05-10 05:06:00,56.4,55.0,29.91,SE,135,0.0,0.0,95,0.00,OVC,,0.00,WeatherDisplay:10.37,2013-05-10 09:06:00,
2013-05-10 05:11:00,56.3,54.9,29.91,SE,135,0.0,0.0,95,0.00,OVC,,0.00,WeatherDisplay:10.37,2013-05-10 09:11:00,
2013-05-10 05:16:00,56.3,54.9,29.92,SE,134,0.0,0.0,95,0.00,OVC,,0.00,WeatherDisplay:10.37,2013-05-10 09:16:00,
2013-05-10 05:21:00,56.2,54.8,29.92,SE,134,0.0,0.0,95,0.00,OVC,,0.00,WeatherDisplay:10.37,2013-05-10 09:21:00,
2013-05-10 05:26:00,56.2,54.8,29.92,SE,134,0.0,0.0,95,0.00,OVC,,0.00,WeatherDisplay:10.37,2013-05-10 09:26:00,
2013-05-10 05:31:00,56.3,54.9,29.92,SE,134,0.0,0.0,95,0.00,OVC,,0.00,WeatherDisplay:10.37,2013-05-10 09:31:00,
2013-05-10 05:36:00,56.3,54.9,29.92,SE,134,0.0,0.0,95,0.00,OVC,,0.00,WeatherDisplay:10.37,2013-05-10 09:36:00,
2013-05-10 05:41:00,56.3,54.9,29.93,South,169,0.0,3.5,95,0.00,OVC,,0.00,WeatherDisplay:10.37,2013-05-10 09:41:00,
2013-05-10 05:46:00,56.4,55.0,29.93,SSE,168,0.0,0.0,95,0.00,OVC,,0.00,WeatherDisplay:10.37,2013-05-10 09:46:00,
2013-05-10 05:51:00,56.4,55.0,29.93,SSE,168,0.0,0.0,95,0.00,OVC,,0.00,WeatherDisplay:10.37,2013-05-10 09:51:00,
2013-05-10 05:56:00,56.6,55.2,29.94,South,169,0.0,0.0,95,0.00,OVC,,0.00,WeatherDisplay:10.37,2013-05-10 09:56:00,
2013-05-10 06:01:00,56.6,55.2,29.94,SSE,168,0.0,1.2,95,0.00,OVC,,0.00,WeatherDisplay:10.37,2013-05-10 10:01:00,
2013-05-10 06:06:00,56.7,55.3,29.94,NW,321,1.6,2.3,95,0.00,OVC,,0.00,WeatherDisplay:10.37,2013-05-10 10:06:00,
2013-05-10 06:11:00,56.9,55.5,29.94,NW,323,0.1,2.3,95,0.00,OVC,,0.00,WeatherDisplay:10.37,2013-05-10 10:11:00,
2013-05-10 06:16:00,56.9,55.5,29.94,North,358,1.9,4.6,95,0.00,OVC,,0.00,WeatherDisplay:10.37,2013-05-10 10:16:00,
2013-05-10 06:21:00,56.7,55.3,29.94,WNW,295,2.0,3.5,95,0.00,OVC,,0.00,WeatherDisplay:10.37,2013-05-10 10:21:00,
2013-05-10 06:26:00,56.7,55.3,29.94,WNW,302,0.1,1.2,95,0.00,OVC,,0.00,WeatherDisplay:10.37,2013-05-10 10:26:00,
2013-05-10 06:31:00,56.7,55.3,29.94,NNW,329,2.9,5.8,95,0.00,OVC,,0.00,WeatherDisplay:10.37,2013-05-10 10:31:00,
2013-05-10 06:36:00,56.6,55.2,29.94,NW,316,0.6,3.5,95,0.00,OVC,,0.00,WeatherDisplay:10.37,2013-05-10 10:36:00,
2013-05-10 06:41:00,56.7,55.3,29.94,WNW,282,1.1,3.5,95,0.00,OVC,,0.00,WeatherDisplay:10.37,2013-05-10 10:41:00,
2013-05-10 06:46:00,56.7,55.3,29.94,WNW,282,0.3,2.3,95,0.00,OVC,,0.00,WeatherDisplay:10.37,2013-05-10 10:46:00,
2013-05-10 06:51:00,56.7,55.3,29.94,West,281,0.0,1.2,95,0.00,OVC,,0.00,WeatherDisplay:10.37,2013-05-10 10:51:00,
2013-05-10 06:56:00,56.9,55.5,29.94,West,281,0.0,0.0,95,0.00,OVC,,0.00,WeatherDisplay:10.37,2013-05-10 10:56:00,
2013-05-10 07:01:00,57.0,55.6,29.94,West,281,0.0,0.0,95,0.00,OVC,,0.00,WeatherDisplay:10.37,2013-05-10 11:01:00,
2013-05-10 07:06:00,57.2,55.8,29.94,West,281,0.0,0.0,95,0.00,OVC,,0.00,WeatherDisplay:10.37,2013-05-10 11:06:00,
2013-05-10 07:11:00,57.5,56.1,29.94,West,281,0.5,2.3,95,0.00,OVC,,0.00,WeatherDisplay:10.37,2013-05-10 11:11:00,
2013-05-10 07:16:00,57.5,56.1,29.94,North,0,1.1,3.5,95,0.00,OVC,,0.00,WeatherDisplay:10.37,2013-05-10 11:16:00,
2013-05-10 07:21:00,57.5,56.1,29.94,North,351,0.0,0.0,95,0.00,OVC,,0.00,WeatherDisplay:10.37,2013-05-10 11:21:00,
2013-05-10 07:26:00,57.7,56.0,29.94,North,7,1.2,3.5,94,0.00,OVC,,0.00,WeatherDisplay:10.37,2013-05-10 11:26:00,
2013-05-10 07:31:00,57.5,55.8,29.94,North,1,2.3,4.0,94,0.00,OVC,,0.00,WeatherDisplay:10.37,2013-05-10 11:31:00,
2013-05-10 07:36:00,57.8,55.8,29.94,NW,316,1.9,3.5,93,0.00,OVC,,0.00,WeatherDisplay:10.37,2013-05-10 11:36:00,
2013-05-10 07:41:00,58.1,56.1,29.94,NW,320,1.1,3.5,93,0.00,OVC,,0.00,WeatherDisplay:10.37,2013-05-10 11:41:00,
2013-05-10 07:46:00,58.4,56.1,29.95,NW,319,0.5,2.3,92,0.00,OVC,,0.00,WeatherDisplay:10.37,2013-05-10 11:46:00,
2013-05-10 07:51:00,58.7,56.4,29.95,West,275,0.0,0.0,92,0.00,OVC,,0.00,WeatherDisplay:10.37,2013-05-10 11:51:00,
2013-05-10 07:56:00,58.9,56.3,29.95,WNW,286,1.3,3.5,91,0.00,OVC,,0.00,WeatherDisplay:10.37,2013-05-10 11:56:00,
2013-05-10 08:01:00,58.9,56.0,29.96,WNW,285,1.6,2.3,90,0.00,BKN,,0.00,WeatherDisplay:10.37,2013-05-10 12:01:00,
2013-05-10 08:06:00,59.2,56.3,29.96,NW,316,2.2,3.5,90,0.00,BKN,,0.00,WeatherDisplay:10.37,2013-05-10 12:06:00,
2013-05-10 08:11:00,59.5,55.9,29.96,NW,321,0.1,2.3,88,0.00,BKN,,0.00,WeatherDisplay:10.37,2013-05-10 12:11:00,
2013-05-10 08:16:00,59.6,55.7,29.95,North,4,2.0,3.5,87,0.00,FEW,,0.00,WeatherDisplay:10.37,2013-05-10 12:16:00,
2013-05-10 08:21:00,60.1,56.2,29.95,NNW,327,0.7,3.5,87,0.00,FEW,,0.00,WeatherDisplay:10.37,2013-05-10 12:21:00,
2013-05-10 08:26:00,60.2,55.3,29.95,NNW,327,0.4,3.5,84,0.00,FEW,,0.00,WeatherDisplay:10.37,2013-05-10 12:26:00,
2013-05-10 08:31:00,60.9,56.0,29.96,NNW,337,1.1,3.5,84,0.00,FEW,,0.00,WeatherDisplay:10.37,2013-05-10 12:31:00,
2013-05-10 08:36:00,61.2,55.7,29.96,NW,312,0.8,5.8,82,0.00,FEW,,0.00,WeatherDisplay:10.37,2013-05-10 12:36:00,
2013-05-10 08:41:00,61.7,55.1,29.96,North,4,2.6,2.6,79,0.00,FEW,,0.00,WeatherDisplay:10.37,2013-05-10 12:41:00,
2013-05-10 08:46:00,62.3,55.4,29.96,North,354,2.5,3.0,78,0.00,FEW,,0.00,WeatherDisplay:10.37,2013-05-10 12:46:00,
2013-05-10 08:51:00,63.1,55.4,29.96,NNE,24,1.6,4.6,76,0.00,FEW,,0.00,WeatherDisplay:10.37,2013-05-10 12:51:00,
2013-05-10 08:56:00,63.6,55.5,29.96,NE,52,0.7,2.0,75,0.00,FEW,,0.00,WeatherDisplay:10.37,2013-05-10 12:56:00,
2013-05-10 09:01:00,64.2,56.5,29.96,WNW,297,3.0,3.5,76,0.00,FEW,,0.00,WeatherDisplay:10.37,2013-05-10 13:01:00,
2013-05-10 09:06:00,64.5,55.3,29.96,North,4,2.3,5.0,72,0.00,FEW,,0.00,WeatherDisplay:10.37,2013-05-10 13:06:00,
2013-05-10 09:11:00,64.7,55.5,29.96,NW,312,5.1,6.0,72,0.00,FEW,,0.00,WeatherDisplay:10.37,2013-05-10 13:11:00,
2013-05-10 09:16:00,65.0,55.8,29.95,WNW,290,0.5,2.3,72,0.00,FEW,,0.00,WeatherDisplay:10.37,2013-05-10 13:16:00,
2013-05-10 09:21:00,65.8,55.7,29.95,NE,41,3.0,6.0,70,0.00,FEW,,0.00,WeatherDisplay:10.37,2013-05-10 13:21:00,
2013-05-10 09:26:00,66.3,55.8,29.95,NW,305,1.4,5.0,69,0.00,FEW,,0.00,WeatherDisplay:10.37,2013-05-10 13:26:00,
2013-05-10 09:31:00,67.0,55.7,29.95,NE,46,0.0,2.3,67,0.00,FEW,,0.00,WeatherDisplay:10.37,2013-05-10 13:31:00,
2013-05-10 09:36:00,67.5,55.7,29.95,ENE,74,0.4,4.6,66,0.00,FEW,,0.00,WeatherDisplay:10.37,2013-05-10 13:36:00,
2013-05-10 09:41:00,67.8,56.4,29.94,ENE,60,1.4,3.0,67,0.00,FEW,,0.00,WeatherDisplay:10.37,2013-05-10 13:41:00,
2013-05-10 09:46:00,68.3,56.9,29.94,NNE,14,3.2,5.0,67,0.00,FEW,,0.00,WeatherDisplay:10.37,2013-05-10 13:46:00,
2013-05-10 09:51:00,68.1,55.9,29.94,North,2,0.1,3.5,65,0.00,FEW,,0.00,WeatherDisplay:10.37,2013-05-10 13:51:00,
2013-05-10 09:56:00,68.8,57.0,29.95,NNE,14,5.0,5.8,66,0.00,FEW,,0.00,WeatherDisplay:10.37,2013-05-10 13:56:00,
2013-05-10 10:01:00,69.0,56.3,29.95,NNE,21,1.7,8.0,64,0.00,CLR,,0.00,WeatherDisplay:10.37,2013-05-10 14:01:00,
2013-05-10 10:06:00,69.1,56.4,29.95,NE,43,3.1,5.8,64,0.00,CLR,,0.00,WeatherDisplay:10.37,2013-05-10 14:06:00,
2013-05-10 10:11:00,69.0,56.7,29.95,NNW,345,2.0,3.5,65,0.00,CLR,,0.00,WeatherDisplay:10.37,2013-05-10 14:11:00,
2013-05-10 10:16:00,69.6,56.4,29.94,WNW,290,2.0,5.0,63,0.00,CLR,,0.00,WeatherDisplay:10.37,2013-05-10 14:16:00,
2013-05-10 10:21:00,70.6,56.9,29.94,WNW,285,1.0,2.3,62,0.00,CLR,,0.00,WeatherDisplay:10.37,2013-05-10 14:21:00,
2013-05-10 10:26:00,70.8,55.8,29.95,NNW,347,4.8,4.8,59,0.00,CLR,,0.00,WeatherDisplay:10.37,2013-05-10 14:26:00,
2013-05-10 10:31:00,71.0,55.9,29.94,North,5,0.5,3.5,59,0.00,CLR,,0.00,WeatherDisplay:10.37,2013-05-10 14:31:00,
2013-05-10 10:36:00,71.5,57.8,29.94,NW,312,3.6,5.8,62,0.00,CLR,,0.00,WeatherDisplay:10.37,2013-05-10 14:36:00,
2013-05-10 10:41:00,72.2,58.5,29.94,NNW,345,0.6,3.5,62,0.00,CLR,,0.00,WeatherDisplay:10.37,2013-05-10 14:41:00,
2013-05-10 10:46:00,72.9,56.8,29.94,West,279,4.7,8.1,57,0.00,CLR,,0.00,WeatherDisplay:10.37,2013-05-10 14:46:00,
2013-05-10 10:51:00,73.0,54.3,29.94,North,4,4.3,7.0,52,0.00,CLR,,0.00,WeatherDisplay:10.37,2013-05-10 14:51:00,
2013-05-10 10:56:00,72.7,55.1,29.95,East,83,0.4,3.5,54,0.00,CLR,,0.00,WeatherDisplay:10.37,2013-05-10 14:56:00,
2013-05-10 11:01:00,72.5,54.4,29.95,NE,56,1.4,5.8,53,0.00,CLR,,0.00,WeatherDisplay:10.37,2013-05-10 15:01:00,
2013-05-10 11:06:00,72.7,55.6,29.95,ENE,65,1.0,3.5,55,0.00,CLR,,0.00,WeatherDisplay:10.37,2013-05-10 15:06:00,
2013-05-10 11:11:00,72.7,54.1,29.95,ENE,57,0.8,5.8,52,0.00,CLR,,0.00,WeatherDisplay:10.37,2013-05-10 15:11:00,
2013-05-10 11:16:00,72.9,55.8,29.94,NNE,28,0.6,3.5,55,0.00,CLR,,0.00,WeatherDisplay:10.37,2013-05-10 15:16:00,
2013-05-10 11:21:00,73.4,56.2,29.94,East,101,1.5,2.3,55,0.00,CLR,,0.00,WeatherDisplay:10.37,2013-05-10 15:21:00,
2013-05-10 11:26:00,74.1,57.4,29.94,NE,55,3.3,5.8,56,0.00,CLR,,0.00,WeatherDisplay:10.37,2013-05-10 15:26:00,
2013-05-10 11:31:00,74.4,55.6,29.94,NE,56,0.9,4.6,52,0.00,CLR,,0.00,WeatherDisplay:10.37,2013-05-10 15:31:00,
2013-05-10 11:36:00,75.0,57.7,29.94,WSW,252,2.6,4.6,55,0.00,CLR,,0.00,WeatherDisplay:10.37,2013-05-10 15:36:00,
2013-05-10 11:41:00,75.7,56.8,29.94,ESE,122,1.1,3.5,52,0.00,CLR,,0.00,WeatherDisplay:10.37,2013-05-10 15:41:00,
2013-05-10 11:46:00,75.5,55.0,29.94,NE,49,5.6,6.9,49,0.00,CLR,,0.00,WeatherDisplay:10.37,2013-05-10 15:46:00,
2013-05-10 11:51:00,75.1,54.6,29.94,North,4,2.6,4.6,49,0.00,CLR,,0.00,WeatherDisplay:10.37,2013-05-10 15:51:00,
2013-05-10 11:56:00,75.3,56.5,29.94,North,2,0.9,2.0,52,0.00,CLR,,0.00,WeatherDisplay:10.37,2013-05-10 15:56:00,
2013-05-10 12:01:00,75.3,55.9,29.94,NNW,348,1.6,4.6,51,0.00,CLR,,0.00,WeatherDisplay:10.37,2013-05-10 16:01:00,
2013-05-10 12:06:00,75.1,57.3,29.94,WNW,295,1.5,2.3,54,0.00,CLR,,0.00,WeatherDisplay:10.37,2013-05-10 16:06:00,
2013-05-10 12:11:00,75.5,55.6,29.94,West,276,3.0,6.0,50,0.00,CLR,,0.00,WeatherDisplay:10.37,2013-05-10 16:11:00,
2013-05-10 12:16:00,76.4,54.1,29.94,WSW,248,0.1,2.3,46,0.00,CLR,,0.00,WeatherDisplay:10.37,2013-05-10 16:16:00,
2013-05-10 12:21:00,77.1,54.7,29.93,SSE,148,3.2,4.6,46,0.00,CLR,,0.00,WeatherDisplay:10.37,2013-05-10 16:21:00,
2013-05-10 12:26:00,77.3,52.4,29.93,SE,132,0.9,1.2,42,0.00,CLR,,0.00,WeatherDisplay:10.37,2013-05-10 16:26:00,
2013-05-10 12:31:00,77.4,56.2,29.93,SE,146,3.2,3.2,48,0.00,CLR,,0.00,WeatherDisplay:10.37,2013-05-10 16:31:00,
2013-05-10 12:36:00,77.4,51.9,29.93,ESE,103,4.6,5.0,41,0.00,CLR,,0.00,WeatherDisplay:10.37,2013-05-10 16:36:00,
2013-05-10 12:41:00,77.1,55.9,29.93,ESE,114,4.3,5.0,48,0.00,CLR,,0.00,WeatherDisplay:10.37,2013-05-10 16:41:00,
2013-05-10 12:46:00,77.4,53.8,29.93,ESE,108,0.1,2.3,44,0.00,CLR,,0.00,WeatherDisplay:10.37,2013-05-10 16:46:00,
2013-05-10 12:51:00,77.6,55.2,29.93,ESE,111,1.9,2.3,46,0.00,CLR,,0.00,WeatherDisplay:10.37,2013-05-10 16:51:00,
2013-05-10 12:56:00,76.9,53.3,29.93,NNE,24,3.7,5.0,44,0.00,CLR,,0.00,WeatherDisplay:10.37,2013-05-10 16:56:00,
2013-05-10 13:01:00,76.2,53.9,29.92,NNW,334,0.7,2.3,46,0.00,CLR,,0.00,WeatherDisplay:10.37,2013-05-10 17:01:00,
2013-05-10 13:06:00,75.7,52.2,29.92,ENE,63,0.2,2.3,44,0.00,CLR,,0.00,WeatherDisplay:10.37,2013-05-10 17:06:00,
2013-05-10 13:11:00,76.0,53.7,29.92,ENE,69,0.1,1.2,46,0.00,CLR,,0.00,WeatherDisplay:10.37,2013-05-10 17:11:00,
2013-05-10 13:16:00,76.4,54.1,29.91,ESE,113,1.6,3.5,46,0.00,CLR,,0.00,WeatherDisplay:10.37,2013-05-10 17:16:00,
2013-05-10 13:21:00,77.1,53.5,29.91,NNE,24,0.8,3.5,44,0.00,CLR,,0.00,WeatherDisplay:10.37,2013-05-10 17:21:00,
2013-05-10 13:26:00,77.8,56.0,29.91,North,8,2.7,4.6,47,0.00,CLR,,0.00,WeatherDisplay:10.37,2013-05-10 17:26:00,
2013-05-10 13:31:00,78.2,55.7,29.91,North,11,1.3,3.5,46,0.00,CLR,,0.00,WeatherDisplay:10.37,2013-05-10 17:31:00,
2013-05-10 13:36:00,78.3,55.2,29.91,SE,137,1.1,2.0,45,0.00,CLR,,0.00,WeatherDisplay:10.37,2013-05-10 17:36:00,
2013-05-10 13:41:00,78.5,54.1,29.91,East,96,3.1,8.1,43,0.00,CLR,,0.00,WeatherDisplay:10.37,2013-05-10 17:41:00,
2013-05-10 13:46:00,78.3,52.0,29.91,East,79,0.7,3.5,40,0.00,CLR,,0.00,WeatherDisplay:10.37,2013-05-10 17:46:00,
2013-05-10 13:51:00,78.5,53.5,29.91,NW,321,1.0,3.5,42,0.00,CLR,,0.00,WeatherDisplay:10.37,2013-05-10 17:51:00,
2013-05-10 13:56:00,79.1,57.7,29.91,NNW,343,0.5,3.5,48,0.00,CLR,,0.00,WeatherDisplay:10.37,2013-05-10 17:56:00,
2013-05-10 14:01:00,79.6,54.5,29.91,South,179,1.4,5.0,42,0.00,BKN,,0.00,WeatherDisplay:10.37,2013-05-10 18:01:00,
2013-05-10 14:06:00,80.2,53.0,29.91,SSW,209,1.3,3.5,39,0.00,BKN,,0.00,WeatherDisplay:10.37,2013-05-10 18:06:00,
2013-05-10 14:11:00,80.9,56.3,29.91,SSW,209,3.4,5.8,43,0.00,BKN,,0.00,WeatherDisplay:10.37,2013-05-10 18:11:00,
2013-05-10 14:16:00,81.3,50.2,29.91,SSE,165,2.2,6.9,34,0.00,BKN,,0.00,WeatherDisplay:10.37,2013-05-10 18:16:00,
2013-05-10 14:21:00,81.3,54.0,29.91,South,169,2.6,5.8,39,0.00,BKN,,0.00,WeatherDisplay:10.37,2013-05-10 18:21:00,
2013-05-10 14:26:00,81.3,51.0,29.90,SW,230,0.1,2.3,35,0.00,BKN,,0.00,WeatherDisplay:10.37,2013-05-10 18:26:00,
2013-05-10 14:31:00,81.3,51.0,29.90,West,273,1.0,4.6,35,0.00,BKN,,0.00,WeatherDisplay:10.37,2013-05-10 18:31:00,
2013-05-10 14:36:00,81.1,51.6,29.90,North,358,0.9,2.3,36,0.00,BKN,,0.00,WeatherDisplay:10.37,2013-05-10 18:36:00,
2013-05-10 14:41:00,81.1,53.1,29.90,SE,129,2.1,5.8,38,0.00,BKN,,0.00,WeatherDisplay:10.37,2013-05-10 18:41:00,
2013-05-10 14:46:00,80.9,51.4,29.90,SE,139,1.8,4.6,36,0.00,BKN,,0.00,WeatherDisplay:10.37,2013-05-10 18:46:00,
2013-05-10 14:51:00,80.8,53.5,29.90,SSW,192,2.0,3.5,39,0.00,BKN,,0.00,WeatherDisplay:10.37,2013-05-10 18:51:00,
2013-05-10 14:56:00,80.2,52.3,29.90,SE,124,5.6,6.0,38,0.00,BKN,,0.00,WeatherDisplay:10.37,2013-05-10 18:56:00,
2013-05-10 15:01:00,80.0,56.1,29.90,SE,128,0.5,3.5,44,0.00,SCT,,0.00,WeatherDisplay:10.37,2013-05-10 19:01:00,
2013-05-10 15:06:00,80.4,51.7,29.90,South,190,3.1,6.9,37,0.00,SCT,,0.00,WeatherDisplay:10.37,2013-05-10 19:06:00,
2013-05-10 15:11:00,80.9,53.6,29.90,SW,220,3.2,6.9,39,0.00,SCT,,0.00,WeatherDisplay:10.37,2013-05-10 19:11:00,
2013-05-10 15:16:00,81.5,53.4,29.89,SSW,204,3.8,11.5,38,0.00,SCT,,0.00,WeatherDisplay:10.37,2013-05-10 19:16:00,
2013-05-10 15:21:00,81.7,52.9,29.89,SE,142,7.7,10.4,37,0.00,SCT,,0.00,WeatherDisplay:10.37,2013-05-10 19:21:00,
2013-05-10 15:26:00,81.9,53.1,29.89,SE,135,4.7,11.0,37,0.00,SCT,,0.00,WeatherDisplay:10.37,2013-05-10 19:26:00,
2013-05-10 15:31:00,81.5,53.4,29.89,SW,223,5.8,8.0,38,0.00,SCT,,0.00,WeatherDisplay:10.37,2013-05-10 19:31:00,
2013-05-10 15:36:00,80.8,52.8,29.89,South,185,4.3,8.1,38,0.00,SCT,,0.00,WeatherDisplay:10.37,2013-05-10 19:36:00,
2013-05-10 15:41:00,80.0,52.8,29.89,South,183,4.7,6.0,39,0.00,SCT,,0.00,WeatherDisplay:10.37,2013-05-10 19:41:00,
2013-05-10 15:46:00,79.6,51.0,29.89,South,186,4.5,5.8,37,0.00,SCT,,0.00,WeatherDisplay:10.37,2013-05-10 19:46:00,
2013-05-10 15:51:00,79.1,53.4,29.90,SW,218,2.9,4.6,41,0.00,SCT,,0.00,WeatherDisplay:10.37,2013-05-10 19:51:00,
2013-05-10 15:56:00,78.7,51.7,29.90,South,189,2.8,8.1,39,0.00,SCT,,0.00,WeatherDisplay:10.37,2013-05-10 19:56:00,
2013-05-10 16:01:00,78.5,51.5,29.90,SSW,203,2.8,5.8,39,0.00,FEW,,0.00,WeatherDisplay:10.37,2013-05-10 20:01:00,
2013-05-10 16:06:00,78.5,53.5,29.90,SSE,148,5.2,6.9,42,0.00,FEW,,0.00,WeatherDisplay:10.37,2013-05-10 20:06:00,
2013-05-10 16:11:00,79.1,53.4,29.90,SSE,158,5.9,6.0,41,0.00,FEW,,0.00,WeatherDisplay:10.37,2013-05-10 20:11:00,
2013-05-10 16:16:00,79.6,53.1,29.90,West,262,6.2,8.1,40,0.00,FEW,,0.00,WeatherDisplay:10.37,2013-05-10 20:16:00,
2013-05-10 16:21:00,80.4,53.2,29.90,SSE,168,1.8,5.8,39,0.00,FEW,,0.00,WeatherDisplay:10.37,2013-05-10 20:21:00,
2013-05-10 16:26:00,80.8,52.8,29.90,SW,223,0.3,5.8,38,0.00,FEW,,0.00,WeatherDisplay:10.37,2013-05-10 20:26:00,
2013-05-10 16:31:00,80.8,53.5,29.90,SW,228,0.2,2.3,39,0.00,FEW,,0.00,WeatherDisplay:10.37,2013-05-10 20:31:00,
2013-05-10 16:36:00,80.4,54.5,29.90,SW,227,2.1,5.0,41,0.00,FEW,,0.00,WeatherDisplay:10.37,2013-05-10 20:36:00,
2013-05-10 16:41:00,80.0,52.8,29.90,SW,221,3.6,6.0,39,0.00,FEW,,0.00,WeatherDisplay:10.37,2013-05-10 20:41:00,
2013-05-10 16:46:00,79.3,52.2,29.90,SSW,197,6.0,8.1,39,0.00,FEW,,0.00,WeatherDisplay:10.37,2013-05-10 20:46:00,
2013-05-10 16:51:00,78.5,52.8,29.90,SSE,159,4.2,8.1,41,0.00,FEW,,0.00,WeatherDisplay:10.37,2013-05-10 20:51:00,
2013-05-10 16:56:00,78.5,54.1,29.90,SE,138,2.8,5.8,43,0.00,FEW,,0.00,WeatherDisplay:10.37,2013-05-10 20:56:00,
2013-05-10 17:01:00,78.3,53.3,29.89,SSE,153,3.9,5.8,42,0.00,BKN,,0.00,WeatherDisplay:10.37,2013-05-10 21:01:00,
2013-05-10 17:06:00,78.2,53.9,29.89,South,183,0.9,4.6,43,0.00,BKN,,0.00,WeatherDisplay:10.37,2013-05-10 21:06:00,
2013-05-10 17:11:00,78.0,53.7,29.89,SSE,165,1.2,4.6,43,0.00,BKN,,0.00,WeatherDisplay:10.37,2013-05-10 21:11:00,
2013-05-10 17:16:00,77.8,52.9,29.89,South,176,1.8,5.8,42,0.00,BKN,,0.00,WeatherDisplay:10.37,2013-05-10 21:16:00,
2013-05-10 17:21:00,77.6,52.7,29.89,SW,214,0.9,2.3,42,0.00,BKN,,0.00,WeatherDisplay:10.37,2013-05-10 21:21:00,
2013-05-10 17:26:00,77.3,53.7,29.89,SSW,193,2.7,10.4,44,0.00,BKN,,0.00,WeatherDisplay:10.37,2013-05-10 21:26:00,
2013-05-10 17:31:00,76.9,53.9,29.89,South,186,4.1,6.9,45,0.00,BKN,,0.00,WeatherDisplay:10.37,2013-05-10 21:31:00,
2013-05-10 17:36:00,76.7,52.5,29.89,SSE,168,3.8,5.0,43,0.00,BKN,,0.00,WeatherDisplay:10.37,2013-05-10 21:36:00,
2013-05-10 17:41:00,76.5,53.6,29.89,SE,145,2.1,5.8,45,0.00,BKN,,0.00,WeatherDisplay:10.37,2013-05-10 21:41:00,
2013-05-10 17:46:00,76.5,54.2,29.89,South,175,1.0,4.6,46,0.00,BKN,,0.00,WeatherDisplay:10.37,2013-05-10 21:46:00,
2013-05-10 17:51:00,76.4,52.2,29.89,SSE,165,2.4,5.8,43,0.00,BKN,,0.00,WeatherDisplay:10.37,2013-05-10 21:51:00,
2013-05-10 17:56:00,76.4,52.9,29.89,SE,144,3.3,6.9,44,0.00,BKN,,0.00,WeatherDisplay:10.37,2013-05-10 21:56:00,
2013-05-10 17:58:00,76.5,53.0,29.89,South,177,2.7,6.9,44,0.00,BKN,,0.00,WeatherDisplay:10.37,2013-05-10 21:58:00,
2013-05-10 18:03:00,76.5,54.2,29.89,South,173,1.1,4.6,46,0.00,OVC,,0.00,WeatherDisplay:10.37,2013-05-10 22:03:00,
2013-05-10 18:08:00,76.5,52.3,29.89,South,173,0.4,2.3,43,0.00,OVC,,0.00,WeatherDisplay:10.37,2013-05-10 22:08:00,
2013-05-10 18:13:00,76.5,53.0,29.88,SSE,149,1.5,2.0,44,0.00,OVC,,0.00,WeatherDisplay:10.37,2013-05-10 22:13:00,
2013-05-10 18:18:00,76.5,53.6,29.88,South,185,0.0,2.3,45,0.00,OVC,,0.00,WeatherDisplay:10.37,2013-05-10 22:18:00,
2013-05-10 18:23:00,76.5,54.2,29.89,SSE,156,4.2,5.8,46,0.00,OVC,,0.00,WeatherDisplay:10.37,2013-05-10 22:23:00,
2013-05-10 18:28:00,76.4,52.2,29.89,South,177,1.5,4.6,43,0.00,OVC,,0.00,WeatherDisplay:10.37,2013-05-10 22:28:00,
2013-05-10 18:33:00,76.4,52.9,29.89,SSE,168,1.3,1.3,44,0.00,OVC,,0.00,WeatherDisplay:10.37,2013-05-10 22:33:00,
2013-05-10 18:38:00,76.4,51.6,29.89,South,186,0.8,3.5,42,0.00,OVC,,0.00,WeatherDisplay:10.37,2013-05-10 22:38:00,
2013-05-10 18:43:00,76.2,51.4,29.89,South,170,0.6,5.8,42,0.00,OVC,,0.00,WeatherDisplay:10.37,2013-05-10 22:43:00,
2013-05-10 18:48:00,76.0,52.5,29.89,South,173,0.1,1.2,44,0.00,OVC,,0.00,WeatherDisplay:10.37,2013-05-10 22:48:00,
2013-05-10 18:53:00,76.0,53.1,29.89,South,173,1.0,1.2,45,0.00,OVC,,0.00,WeatherDisplay:10.37,2013-05-10 22:53:00,
2013-05-10 18:58:00,75.7,51.6,29.89,South,173,0.8,3.5,43,0.00,OVC,,0.00,WeatherDisplay:10.37,2013-05-10 22:58:00,
2013-05-10 19:03:00,75.5,52.7,29.90,SSW,194,0.0,0.0,45,0.00,OVC,,0.00,WeatherDisplay:10.37,2013-05-10 23:03:00,
2013-05-10 19:08:00,75.3,53.7,29.90,SSW,193,0.2,1.2,47,0.00,OVC,,0.00,WeatherDisplay:10.37,2013-05-10 23:08:00,
2013-05-10 19:13:00,75.0,54.0,29.90,ESE,118,0.5,3.0,48,0.00,OVC,,0.00,WeatherDisplay:10.37,2013-05-10 23:13:00,
2013-05-10 19:18:00,74.4,55.1,29.90,ESE,114,6.1,6.9,51,0.00,OVC,,0.00,WeatherDisplay:10.37,2013-05-10 23:18:00,
2013-05-10 19:23:00,73.9,56.2,29.90,SE,139,5.8,7.0,54,0.00,OVC,,0.00,WeatherDisplay:10.37,2013-05-10 23:23:00,
2013-05-10 19:28:00,73.4,57.2,29.91,ESE,114,3.8,5.8,57,0.00,OVC,,0.00,WeatherDisplay:10.37,2013-05-10 23:28:00,
2013-05-10 19:33:00,72.7,56.6,29.91,SE,138,4.8,8.1,57,0.00,OVC,,0.00,WeatherDisplay:10.37,2013-05-10 23:33:00,
2013-05-10 19:38:00,72.4,56.8,29.91,ESE,121,3.5,9.2,58,0.00,OVC,,0.00,WeatherDisplay:10.37,2013-05-10 23:38:00,
2013-05-10 19:43:00,72.2,56.6,29.91,SE,146,7.1,9.0,58,0.00,OVC,,0.00,WeatherDisplay:10.37,2013-05-10 23:43:00,
2013-05-10 19:48:00,71.5,56.4,29.91,SSE,151,7.1,8.1,59,0.00,OVC,,0.00,WeatherDisplay:10.37,2013-05-10 23:48:00,
2013-05-10 19:53:00,71.2,56.1,29.91,ESE,120,6.6,11.5,59,0.00,OVC,,0.00,WeatherDisplay:10.37,2013-05-10 23:53:00,
2013-05-10 19:58:00,70.6,56.0,29.91,ESE,120,4.4,6.9,60,0.00,OVC,,0.00,WeatherDisplay:10.37,2013-05-10 23:58:00,
2013-05-10 20:03:00,70.3,55.8,29.91,SE,135,3.7,6.9,60,0.00,OVC,,0.00,WeatherDisplay:10.37,2013-05-11 00:03:00,
2013-05-10 20:08:00,70.0,55.9,29.91,SE,132,5.3,10.4,61,0.00,OVC,,0.00,WeatherDisplay:10.37,2013-05-11 00:08:00,
2013-05-10 20:13:00,69.6,56.0,29.91,ESE,120,5.5,8.1,62,0.00,OVC,,0.00,WeatherDisplay:10.37,2013-05-11 00:13:00,
2013-05-10 20:18:00,69.3,55.7,29.91,SSE,166,5.0,8.0,62,0.00,OVC,,0.00,WeatherDisplay:10.37,2013-05-11 00:18:00,
2013-05-10 20:23:00,69.0,55.4,29.91,SSE,148,4.7,5.8,62,0.00,OVC,,0.00,WeatherDisplay:10.37,2013-05-11 00:23:00,
2013-05-10 20:28:00,68.6,55.1,29.91,SE,129,2.7,5.8,62,0.00,OVC,,0.00,WeatherDisplay:10.37,2013-05-11 00:28:00,
2013-05-10 20:33:00,68.3,55.2,29.91,SSE,153,3.2,5.8,63,0.00,OVC,,0.00,WeatherDisplay:10.37,2013-05-11 00:33:00,
2013-05-10 20:38:00,68.0,54.9,29.91,SSE,155,2.5,5.0,63,0.00,OVC,,0.00,WeatherDisplay:10.37,2013-05-11 00:38:00,
2013-05-10 20:43:00,67.6,55.0,29.91,SSE,149,3.9,6.9,64,0.00,OVC,,0.00,WeatherDisplay:10.37,2013-05-11 00:43:00,
2013-05-10 20:48:00,67.3,54.7,29.92,SSE,159,2.3,4.6,64,0.00,OVC,,0.00,WeatherDisplay:10.37,2013-05-11 00:48:00,
2013-05-10 20:53:00,67.0,54.8,29.92,ESE,114,1.5,2.3,65,0.00,OVC,,0.00,WeatherDisplay:10.37,2013-05-11 00:53:00,
2013-05-10 20:58:00,66.6,54.5,29.92,ESE,122,1.0,3.5,65,0.00,OVC,,0.00,WeatherDisplay:10.37,2013-05-11 00:58:00,
2013-05-10 21:03:00,66.3,54.6,29.92,SE,124,4.4,6.9,66,0.00,SCT,,0.00,WeatherDisplay:10.37,2013-05-11 01:03:00,
2013-05-10 21:08:00,66.0,54.7,29.92,SE,124,2.5,4.6,67,0.00,SCT,,0.00,WeatherDisplay:10.37,2013-05-11 01:08:00,
2013-05-10 21:13:00,65.7,54.4,29.92,ESE,122,2.6,3.5,67,0.00,SCT,,0.00,WeatherDisplay:10.37,2013-05-11 01:13:00,
2013-05-10 21:18:00,65.5,54.7,29.92,ESE,122,1.5,2.3,68,0.00,SCT,,0.00,WeatherDisplay:10.37,2013-05-11 01:18:00,
2013-05-10 21:23:00,65.2,54.8,29.92,SE,129,0.0,3.5,69,0.00,SCT,,0.00,WeatherDisplay:10.37,2013-05-11 01:23:00,
2013-05-10 21:28:00,65.0,54.6,29.92,SE,125,2.1,2.3,69,0.00,SCT,,0.00,WeatherDisplay:10.37,2013-05-11 01:28:00,
2013-05-10 21:33:00,64.7,54.7,29.91,ESE,117,2.6,5.8,70,0.00,SCT,,0.00,WeatherDisplay:10.37,2013-05-11 01:33:00,
2013-05-10 21:38:00,64.4,54.8,29.91,SSE,155,1.3,2.3,71,0.00,SCT,,0.00,WeatherDisplay:10.37,2013-05-11 01:38:00,
2013-05-10 21:43:00,64.0,54.8,29.91,SE,138,1.6,4.6,72,0.00,SCT,,0.00,WeatherDisplay:10.37,2013-05-11 01:43:00,
2013-05-10 21:48:00,63.7,54.9,29.91,SSE,163,1.3,3.5,73,0.00,SCT,,0.00,WeatherDisplay:10.37,2013-05-11 01:48:00,
2013-05-10 21:53:00,63.4,54.6,29.92,SSE,151,1.6,3.5,73,0.00,SCT,,0.00,WeatherDisplay:10.37,2013-05-11 01:53:00,
2013-05-10 21:58:00,63.1,54.7,29.92,SE,146,1.2,2.3,74,0.00,SCT,,0.00,WeatherDisplay:10.37,2013-05-11 01:58:00,
2013-05-10 22:03:00,62.9,54.9,29.92,SSE,148,0.0,0.0,75,0.00,CLR,,0.00,WeatherDisplay:10.37,2013-05-11 02:03:00,
2013-05-10 22:08:00,62.6,54.6,29.92,ESE,122,0.4,2.0,75,0.00,CLR,,0.00,WeatherDisplay:10.37,2013-05-11 02:08:00,
2013-05-10 22:13:00,62.4,54.7,29.91,SE,135,1.0,3.5,76,0.00,CLR,,0.00,WeatherDisplay:10.37,2013-05-11 02:13:00,
2013-05-10 22:18:00,62.1,54.4,29.91,SE,134,0.4,1.2,76,0.00,CLR,,0.00,WeatherDisplay:10.37,2013-05-11 02:18:00,
2013-05-10 22:23:00,62.0,54.7,29.91,SE,134,1.5,3.5,77,0.00,CLR,,0.00,WeatherDisplay:10.37,2013-05-11 02:23:00,
2013-05-10 22:28:00,61.8,54.5,29.91,SSE,152,1.1,1.2,77,0.00,CLR,,0.00,WeatherDisplay:10.37,2013-05-11 02:28:00,
2013-05-10 22:33:00,61.7,54.8,29.91,SSE,152,0.0,0.0,78,0.00,CLR,,0.00,WeatherDisplay:10.37,2013-05-11 02:33:00,
2013-05-10 22:38:00,61.5,54.6,29.91,SE,124,2.4,3.5,78,0.00,CLR,,0.00,WeatherDisplay:10.37,2013-05-11 02:38:00,
2013-05-10 22:43:00,61.3,54.7,29.91,SE,141,1.1,3.5,79,0.00,CLR,,0.00,WeatherDisplay:10.37,2013-05-11 02:43:00,
2013-05-10 22:48:00,61.2,54.6,29.91,SSE,149,1.2,3.5,79,0.00,CLR,,0.00,WeatherDisplay:10.37,2013-05-11 02:48:00,
2013-05-10 22:53:00,61.0,54.8,29.91,SSE,156,1.6,3.5,80,0.00,CLR,,0.00,WeatherDisplay:10.37,2013-05-11 02:53:00,
2013-05-10 22:58:00,61.0,54.8,29.91,SE,127,1.3,3.0,80,0.00,CLR,,0.00,WeatherDisplay:10.37,2013-05-11 02:58:00,
2013-05-10 23:03:00,60.9,54.7,29.90,SSE,152,0.7,2.3,80,0.00,OVC,,0.00,WeatherDisplay:10.37,2013-05-11 03:03:00,
2013-05-10 23:08:00,60.9,54.7,29.90,SSE,153,1.5,2.3,80,0.00,OVC,,0.00,WeatherDisplay:10.37,2013-05-11 03:08:00,
2013-05-10 23:13:00,60.7,54.8,29.90,SSE,155,0.6,2.3,81,0.00,OVC,,0.00,WeatherDisplay:10.37,2013-05-11 03:13:00,
2013-05-10 23:18:00,60.7,54.8,29.90,SSE,165,2.1,3.5,81,0.00,OVC,,0.00,WeatherDisplay:10.37,2013-05-11 03:18:00,
2013-05-10 23:23:00,60.6,54.7,29.90,SSE,161,1.6,3.5,81,0.00,OVC,,0.00,WeatherDisplay:10.37,2013-05-11 03:23:00,
2013-05-10 23:28:00,60.6,54.7,29.90,SSE,159,0.0,0.0,81,0.00,OVC,,0.00,WeatherDisplay:10.37,2013-05-11 03:28:00,
2013-05-10 23:33:00,60.4,54.5,29.90,SSE,159,0.7,1.2,81,0.00,OVC,,0.00,WeatherDisplay:10.37,2013-05-11 03:33:00,
2013-05-10 23:38:00,60.2,54.7,29.90,SSE,159,0.0,1.2,82,0.00,OVC,,0.00,WeatherDisplay:10.37,2013-05-11 03:38:00,
2013-05-10 23:43:00,60.1,54.6,29.90,SSE,156,0.0,0.0,82,0.00,OVC,,0.00,WeatherDisplay:10.37,2013-05-11 03:43:00,
2013-05-10 23:48:00,60.1,54.6,29.90,SSE,158,0.0,0.0,82,0.00,OVC,,0.00,WeatherDisplay:10.37,2013-05-11 03:48:00,
2013-05-10 23:53:00,59.9,54.4,29.90,SSE,159,0.0,0.0,82,0.00,OVC,,0.00,WeatherDisplay:10.37,2013-05-11 03:53:00,
2013-05-10 23:58:00,59.8,54.6,29.90,SSE,158,0.0,0.0,83,0.00,OVC,,0.00,WeatherDisplay:10.37,2013-05-11 03:58:00,